When you browse on this site, cookies collect data to enhance your experience and personalize the content and advertising you see.
Visit our Privacy Policy to learn more. By continuing to use the site, you agree to this use of cookies and data.
  • In Latvia
  • List of Countries
  • For 7 days
  • Water Temperature
  • Satellite Maps
  • Weather Map
  • Weather Widgets
  • user-avatar
    Login

    Hourly Weather Malanville

    Today, 26 April, Friday

    Time Temperature Precipitation Wind Pressure Humidity
    00:00 +40°C° 0 mm 2 mps 741 mmHg 22%
    01:00 +39°C° 0 mm 2 mps 741 mmHg 23%
    02:00 +39°C° 0 mm 2 mps 741 mmHg 24%
    03:00 +38°C° 0 mm 2 mps 741 mmHg 25%
    04:00 +37°C° 0 mm 1 mps 741 mmHg 26%
    05:00 +36°C° 0 mm 1 mps 741 mmHg 27%
    06:00 +36°C° 0 mm 1 mps 742 mmHg 28%
    07:00 +39°C° 0 mm 2 mps 742 mmHg 27%
    08:00 +40°C° 0 mm 2 mps 742 mmHg 25%
    09:00 +41°C° 0 mm 2 mps 743 mmHg 24%
    10:00 +43°C° 0 mm 2 mps 742 mmHg 21%
    11:00 +45°C° 0 mm 3 mps 742 mmHg 18%
    12:00 +46°C° 0 mm 3 mps 741 mmHg 15%
    13:00 +47°C° 0 mm 3 mps 741 mmHg 14%
    14:00 +47°C° 0 mm 3 mps 740 mmHg 13%
    15:00 +49°C° 0 mm 4 mps 739 mmHg 12%
    16:00 +48°C° 0 mm 4 mps 739 mmHg 11%
    17:00 +47°C° 0 mm 4 mps 739 mmHg 10%
    18:00 +46°C° 0 mm 3 mps 739 mmHg 10%
    19:00 +45°C° 0 mm 3 mps 739 mmHg 8%
    20:00 +42°C° 0 mm 2 mps 740 mmHg 7%
    21:00 +41°C° 0 mm 2 mps 740 mmHg 6%
    22:00 +40°C° 0 mm 2 mps 740 mmHg 8%
    23:00 +39°C° 0 mm 2 mps 740 mmHg 9%

    Tomorrow, 27 April, Saturday

    Time Temperature Precipitation Wind Pressure Humidity
    00:00 +39°C° 0 mm 2 mps 740 mmHg 10%
    01:00 +38°C° 0 mm 2 mps 740 mmHg 16%
    02:00 +37°C° 0 mm 2 mps 740 mmHg 22%
    03:00 +36°C° 0 mm 2 mps 739 mmHg 28%
    04:00 +36°C° 0 mm 2 mps 740 mmHg 32%
    05:00 +36°C° 0 mm 3 mps 740 mmHg 37%
    06:00 +36°C° 0 mm 3 mps 740 mmHg 41%
    07:00 +37°C° 0 mm 3 mps 741 mmHg 39%
    08:00 +39°C° 0 mm 3 mps 741 mmHg 37%
    09:00 +40°C° 0 mm 3 mps 742 mmHg 35%
    10:00 +43°C° 0 mm 3 mps 741 mmHg 30%
    11:00 +43°C° 0 mm 2 mps 741 mmHg 25%
    12:00 +46°C° 0 mm 2 mps 741 mmHg 20%
    13:00 +46°C° 0 mm 2 mps 740 mmHg 17%
    14:00 +47°C° 0 mm 2 mps 739 mmHg 15%
    15:00 +48°C° 0 mm 2 mps 738 mmHg 12%
    16:00 +47°C° 0 mm 2 mps 738 mmHg 12%
    17:00 +46°C° 0 mm 3 mps 738 mmHg 12%
    18:00 +46°C° 0 mm 3 mps 738 mmHg 12%
    19:00 +45°C° 0 mm 2 mps 739 mmHg 13%
    20:00 +43°C° 0 mm 2 mps 739 mmHg 14%
    21:00 +42°C° 0 mm 2 mps 740 mmHg 14%
    22:00 +41°C° 0 mm 2 mps 740 mmHg 17%
    23:00 +40°C° 0 mm 3 mps 740 mmHg 19%

    Day after tomorrow, 28 April, Sunday

    Time Temperature Precipitation Wind Pressure Humidity
    00:00 +39°C° 0 mm 3 mps 740 mmHg 21%
    01:00 +38°C° 0 mm 3 mps 739 mmHg 26%
    02:00 +38°C° 0 mm 3 mps 739 mmHg 30%
    03:00 +37°C° 0 mm 3 mps 739 mmHg 35%
    04:00 +37°C° 0 mm 3 mps 739 mmHg 39%
    05:00 +36°C° 0 mm 3 mps 740 mmHg 43%
    06:00 +36°C° 0 mm 3 mps 740 mmHg 48%
    07:00 +37°C° 0 mm 4 mps 741 mmHg 45%
    08:00 +38°C° 0 mm 4 mps 742 mmHg 43%
    09:00 +40°C° 0 mm 4 mps 742 mmHg 40%
    10:00 +42°C° 0 mm 4 mps 742 mmHg 36%
    11:00 +43°C° 0 mm 4 mps 741 mmHg 31%
    12:00 +45°C° 0 mm 4 mps 741 mmHg 27%
    13:00 +45°C° 0 mm 3 mps 740 mmHg 24%
    14:00 +46°C° 0 mm 2 mps 739 mmHg 20%
    15:00 +45°C° 0 mm 1 mps 739 mmHg 17%
    16:00 +45°C° 0 mm 1 mps 739 mmHg 18%
    17:00 +45°C° 0 mm 1 mps 739 mmHg 18%
    18:00 +44°C° 0 mm 1 mps 739 mmHg 18%
    19:00 +44°C° 0 mm 1 mps 740 mmHg 19%
    20:00 +43°C° 0 mm 1 mps 740 mmHg 20%
    21:00 +42°C° 0 mm 1 mps 741 mmHg 21%
    22:00 +42°C° 0 mm 2 mps 741 mmHg 22%
    23:00 +42°C° 0 mm 3 mps 741 mmHg 23%

    29 April, Monday

    Time Temperature Precipitation Wind Pressure Humidity
    00:00 +41°C° 0 mm 4 mps 740 mmHg 24%
    01:00 +41°C° 0 mm 4 mps 740 mmHg 29%
    02:00 +40°C° 0 mm 5 mps 739 mmHg 33%
    03:00 +40°C° 0 mm 5 mps 739 mmHg 37%
    04:00 +39°C° 0 mm 5 mps 739 mmHg 39%
    05:00 +37°C° 0 mm 5 mps 740 mmHg 41%
    06:00 +38°C° 0 mm 6 mps 740 mmHg 42%
    07:00 +39°C° 0 mm 5 mps 741 mmHg 40%
    08:00 +40°C° 0 mm 5 mps 742 mmHg 38%
    09:00 +42°C° 0 mm 5 mps 742 mmHg 36%
    10:00 +43°C° 0 mm 4 mps 742 mmHg 33%
    11:00 +44°C° 0 mm 4 mps 741 mmHg 30%
    12:00 +45°C° 0 mm 3 mps 741 mmHg 26%
    13:00 +45°C° 0 mm 2 mps 740 mmHg 25%
    14:00 +44°C° 0 mm 1 mps 739 mmHg 23%
    15:00 +41°C° 0 mm 0 mps 739 mmHg 22%
    16:00 +44°C° 0 mm 1 mps 739 mmHg 23%
    17:00 +44°C° 0 mm 1 mps 739 mmHg 23%
    18:00 +43°C° 0 mm 2 mps 739 mmHg 24%
    19:00 +43°C° 0 mm 2 mps 740 mmHg 25%
    20:00 +43°C° 0 mm 1 mps 740 mmHg 26%
    21:00 +39°C° 0 mm 0 mps 741 mmHg 26%
    22:00 +42°C° 0.1 mm 2 mps 741 mmHg 28%
    23:00 +42°C° 0.1 mm 3 mps 740 mmHg 29%

    30 April, Tuesday

    Time Temperature Precipitation Wind Pressure Humidity
    00:00 +41°C° 0.1 mm 4 mps 740 mmHg 30%
    01:00 +40°C° 0 mm 5 mps 740 mmHg 35%
    02:00 +39°C° 0 mm 5 mps 740 mmHg 39%
    03:00 +38°C° 0 mm 6 mps 739 mmHg 44%
    04:00 +36°C° 0 mm 6 mps 740 mmHg 47%
    05:00 +36°C° 0 mm 6 mps 740 mmHg 50%
    06:00 +35°C° 0 mm 7 mps 741 mmHg 53%
    07:00 +38°C° 0 mm 6 mps 742 mmHg 49%
    08:00 +39°C° 0 mm 6 mps 742 mmHg 44%
    09:00 +40°C° 0 mm 5 mps 743 mmHg 40%
    10:00 +42°C° 0 mm 5 mps 743 mmHg 37%
    11:00 +43°C° 0 mm 4 mps 742 mmHg 33%
    12:00 +44°C° 0 mm 4 mps 742 mmHg 29%
    13:00 +43°C° 0.6 mm 3 mps 741 mmHg 31%
    14:00 +42°C° 0.6 mm 3 mps 740 mmHg 33%
    15:00 +40°C° 0.6 mm 3 mps 739 mmHg 36%
    16:00 +39°C° 0 mm 3 mps 739 mmHg 39%
    17:00 +38°C° 0 mm 3 mps 739 mmHg 42%
    18:00 +38°C° 0 mm 3 mps 739 mmHg 45%
    19:00 +38°C° 0 mm 3 mps 739 mmHg 44%
    20:00 +38°C° 0 mm 3 mps 740 mmHg 44%
    21:00 +38°C° 0 mm 3 mps 740 mmHg 43%
    22:00 +37°C° 0 mm 5 mps 740 mmHg 49%
    23:00 +35°C° 0 mm 6 mps 740 mmHg 55%

    1 May, Wednesday

    Time Temperature Precipitation Wind Pressure Humidity
    00:00 +34°C° 0 mm 8 mps 740 mmHg 60%
    01:00 +34°C° 0.2 mm 7 mps 740 mmHg 59%
    02:00 +33°C° 0.2 mm 7 mps 740 mmHg 57%
    03:00 +33°C° 0.2 mm 6 mps 740 mmHg 55%
    04:00 +33°C° 0 mm 6 mps 741 mmHg 58%
    05:00 +33°C° 0 mm 5 mps 741 mmHg 60%
    06:00 +33°C° 0 mm 4 mps 742 mmHg 63%
    07:00 +34°C° 0 mm 4 mps 742 mmHg 59%
    08:00 +35°C° 0 mm 5 mps 743 mmHg 55%
    09:00 +36°C° 0 mm 5 mps 743 mmHg 50%
    10:00 +39°C° 0 mm 5 mps 743 mmHg 46%
    11:00 +41°C° 0 mm 5 mps 742 mmHg 41%
    12:00 +42°C° 0 mm 5 mps 741 mmHg 36%
    13:00 +43°C° 0 mm 5 mps 741 mmHg 32%
    14:00 +44°C° 0 mm 4 mps 740 mmHg 29%
    15:00 +45°C° 0 mm 3 mps 739 mmHg 25%
    16:00 +44°C° 0 mm 3 mps 739 mmHg 25%
    17:00 +44°C° 0 mm 3 mps 739 mmHg 25%
    18:00 +42°C° 0 mm 2 mps 740 mmHg 26%
    19:00 +42°C° 0 mm 3 mps 740 mmHg 31%
    20:00 +41°C° 0 mm 4 mps 740 mmHg 36%
    21:00 +40°C° 0 mm 5 mps 740 mmHg 41%
    22:00 +40°C° 0 mm 5 mps 740 mmHg 44%
    23:00 +39°C° 0 mm 5 mps 740 mmHg 46%
    Show more